Location: Blue Mountain Vista Observatory
(40.6992°N, 75.9422°W)
Time: 04:31:31
(UTC-05:00)

IDEFIX/ARIANE 42P - Visible Passes

Search period start: 16 January 2018 00:00
Search period end: 26 January 2018 00:00
Orbit: 786 x 802 km, 98.2° (Epoch: 14 January)

Date Brightness Start Highest point End Pass type
(mag) Time Alt. Az. Time Alt. Az. Time Alt. Az.
16 Jan 2.9 05:09:48 10° NNE 05:15:04 68° ESE 05:20:18 10° S visible
16 Jan 4.0 06:50:56 10° NNW 06:54:05 16° WNW 06:57:15 10° W visible
17 Jan 4.0 04:41:47 10° NNE 04:46:39 37° E 04:51:29 10° SSE visible
17 Jan 3.4 06:21:40 10° N 06:26:05 28° WNW 06:30:30 10° SW visible
17 Jan 5.4 17:41:08 10° SW 17:44:47 19° W 17:48:28 10° NW visible
18 Jan 5.0 04:14:15 10° NE 04:18:07 20° E 04:21:57 10° SE visible
18 Jan 2.7 05:52:52 10° N 05:57:57 49° WNW 06:03:00 10° SW visible
19 Jan 5.7 03:48:29 10° ENE 03:49:26 10° E 03:50:24 10° E visible
19 Jan 2.5 05:24:24 10° NNE 05:29:43 88° W 05:34:59 10° SSW visible
20 Jan 3.4 04:56:12 10° NNE 05:01:21 51° E 05:06:27 10° S visible
20 Jan 3.7 06:36:42 10° NNW 06:40:34 21° WNW 06:44:24 10° WSW visible
20 Jan 5.7 17:57:02 10° WSW 17:59:36 14° W 18:02:09 10° WNW visible
21 Jan 4.5 04:28:23 10° NE 04:32:52 28° E 04:37:20 10° SSE visible
21 Jan 3.1 06:07:42 10° N 06:12:29 36° WNW 06:17:15 10° SW visible
22 Jan 5.3 04:01:15 10° NE 04:04:16 15° E 04:07:16 10° SE visible
22 Jan 2.5 05:39:05 10° N 05:44:19 65° WNW 05:49:31 10° SSW visible
23 Jan 2.8 05:10:44 10° NNE 05:16:01 71° ESE 05:21:15 10° S visible
23 Jan 4.0 06:51:57 10° NNW 06:55:00 16° WNW 06:58:01 10° W visible
24 Jan 3.9 04:42:41 10° NNE 04:47:36 38° E 04:52:28 10° SSE visible
24 Jan 3.5 06:22:38 10° N 06:27:00 27° WNW 06:31:20 10° WSW visible
24 Jan 5.5 17:42:11 10° SW 17:45:44 18° W 17:49:19 10° NW visible
25 Jan 4.9 04:15:06 10° NE 04:19:04 21° E 04:23:00 10° SE visible
25 Jan 2.8 05:53:50 10° N 05:58:53 47° WNW 06:03:53 10° SW visible
